Location: Escondida
(34.1015°N, 106.8964°W)
Time: 23:09:29
(UTC+00:00)

CUBEBUG 2 - Visible Passes

Search period start: 18 April 2026 00:00
Search period end: 28 April 2026 00:00
Orbit: 548 x 627 km, 97.9° (Epoch: 18 April)

Date Brightness Start Highest point End Pass type
(mag) Time Alt. Az. Time Alt. Az. Time Alt. Az.
18 Apr ? 09:26:27 10° NNE 09:27:29 17° NNE 09:27:29 17° NNE visible
19 Apr ? 09:33:41 10° N 09:34:53 19° N 09:34:53 19° N visible
20 Apr ? 09:40:57 10° N 09:42:16 19° N 09:42:16 19° N visible
21 Apr ? 09:48:15 10° N 09:49:39 20° N 09:49:39 20° N visible
22 Apr ? 09:55:34 10° N 09:57:02 20° NNW 09:57:02 20° NNW visible
23 Apr ? 10:02:55 10° N 10:04:24 19° NNW 10:04:24 19° NNW visible
24 Apr ? 10:10:18 10° NNW 10:11:46 18° NNW 10:11:46 18° NNW visible
25 Apr ? 08:42:21 10° NE 08:42:38 11° NE 08:42:38 11° NE visible
25 Apr ? 10:17:45 10° NNW 10:19:08 17° NW 10:19:08 17° NW visible
26 Apr ? 08:49:18 10° NE 08:50:00 14° NE 08:50:00 14° NE visible
26 Apr ? 10:25:15 10° NNW 10:26:29 15° NW 10:26:29 15° NW visible
27 Apr ? 08:56:20 10° NNE 08:57:21 16° NE 08:57:21 16° NE visible
27 Apr ? 10:32:51 10° NNW 10:33:50 13° NW 10:33:50 13° NW visible
